When you browse on this site, cookies collect data to enhance your experience and personalize the content and advertising you see.
Visit our Privacy Policy to learn more. By continuing to use the site, you agree to this use of cookies and data.
  • Em Portugal
  • Lista de países
  • Para 7 dias
  • Temperatura da água
  • Mapas de satélite
  • Mapa do tempo
  • Widgets de tempo
  • user-avatar
    Iniciar Sessão

    Previsão horária em Bangor

    Hoje, 18 Julho, Quinta-feira

    Tempo Temperatura Precipitação Vento Pressão Humidade
    00:00 +14°C° 0 mm 3 m/s 740 mmHg 97%
    01:00 +14°C° 0.1 mm 3 m/s 740 mmHg 97%
    02:00 +14°C° 0.1 mm 3 m/s 740 mmHg 97%
    03:00 +14°C° 0.1 mm 3 m/s 739 mmHg 96%
    04:00 +14°C° 0 mm 3 m/s 739 mmHg 95%
    05:00 +14°C° 0 mm 3 m/s 739 mmHg 94%
    06:00 +15°C° 0 mm 2 m/s 740 mmHg 93%
    07:00 +16°C° 0 mm 3 m/s 740 mmHg 88%
    08:00 +17°C° 0 mm 3 m/s 740 mmHg 83%
    09:00 +17°C° 0 mm 4 m/s 741 mmHg 78%
    10:00 +18°C° 0 mm 4 m/s 741 mmHg 74%
    11:00 +19°C° 0 mm 5 m/s 741 mmHg 70%
    12:00 +19°C° 0 mm 5 m/s 741 mmHg 66%
    13:00 +19°C° 0 mm 6 m/s 741 mmHg 66%
    14:00 +19°C° 0 mm 6 m/s 741 mmHg 65%
    15:00 +19°C° 0 mm 6 m/s 741 mmHg 65%
    16:00 +19°C° 0 mm 6 m/s 741 mmHg 68%
    17:00 +17°C° 0 mm 5 m/s 741 mmHg 71%
    18:00 +16°C° 0 mm 5 m/s 741 mmHg 75%
    19:00 +15°C° 0 mm 4 m/s 741 mmHg 81%
    20:00 +14°C° 0 mm 4 m/s 742 mmHg 87%
    21:00 +12°C° 0 mm 3 m/s 742 mmHg 93%
    22:00 +13°C° 0 mm 2 m/s 742 mmHg 94%
    23:00 +13°C° 0 mm 2 m/s 742 mmHg 94%

    Amanhã, 19 Julho, Sexta-feira

    Tempo Temperatura Precipitação Vento Pressão Humidade
    00:00 +12°C° 0 mm 2 m/s 742 mmHg 95%
    01:00 +12°C° 0 mm 2 m/s 742 mmHg 95%
    02:00 +13°C° 0 mm 2 m/s 741 mmHg 96%
    03:00 +13°C° 0 mm 2 m/s 741 mmHg 96%
    04:00 +13°C° 0.2 mm 2 m/s 741 mmHg 96%
    05:00 +12°C° 0.2 mm 3 m/s 741 mmHg 95%
    06:00 +12°C° 0.2 mm 3 m/s 740 mmHg 94%
    07:00 +13°C° 1.6 mm 4 m/s 740 mmHg 95%
    08:00 +13°C° 1.6 mm 4 m/s 740 mmHg 96%
    09:00 +14°C° 1.6 mm 5 m/s 739 mmHg 97%
    10:00 +15°C° 0.5 mm 6 m/s 739 mmHg 96%
    11:00 +16°C° 0.5 mm 6 m/s 739 mmHg 94%
    12:00 +17°C° 0.5 mm 7 m/s 739 mmHg 93%
    13:00 +18°C° 0.7 mm 7 m/s 739 mmHg 91%
    14:00 +18°C° 0.7 mm 8 m/s 739 mmHg 89%
    15:00 +20°C° 0.7 mm 8 m/s 739 mmHg 87%
    16:00 +18°C° 0.3 mm 8 m/s 738 mmHg 86%
    17:00 +18°C° 0.3 mm 8 m/s 738 mmHg 86%
    18:00 +17°C° 0.3 mm 7 m/s 738 mmHg 86%
    19:00 +16°C° 0.1 mm 7 m/s 738 mmHg 87%
    20:00 +16°C° 0.1 mm 6 m/s 738 mmHg 88%
    21:00 +15°C° 0.1 mm 5 m/s 739 mmHg 89%
    22:00 +15°C° 0.1 mm 5 m/s 738 mmHg 90%
    23:00 +15°C° 0.1 mm 5 m/s 738 mmHg 91%

    Depois de amanhã, 20 Julho, Sábado

    Tempo Temperatura Precipitação Vento Pressão Humidade
    00:00 +15°C° 0.1 mm 5 m/s 738 mmHg 91%
    01:00 +14°C° 0.1 mm 4 m/s 738 mmHg 93%
    02:00 +14°C° 0.1 mm 4 m/s 738 mmHg 94%
    03:00 +14°C° 0.1 mm 4 m/s 738 mmHg 95%
    04:00 +14°C° 0 mm 4 m/s 737 mmHg 95%
    05:00 +14°C° 0 mm 5 m/s 737 mmHg 94%
    06:00 +15°C° 0 mm 5 m/s 737 mmHg 94%
    07:00 +15°C° 0.2 mm 5 m/s 738 mmHg 91%
    08:00 +16°C° 0.2 mm 5 m/s 738 mmHg 89%
    09:00 +17°C° 0.2 mm 6 m/s 738 mmHg 86%
    10:00 +19°C° 0.3 mm 6 m/s 739 mmHg 82%
    11:00 +20°C° 0.3 mm 6 m/s 739 mmHg 77%
    12:00 +21°C° 0.3 mm 7 m/s 739 mmHg 73%
    13:00 +20°C° 0.2 mm 6 m/s 740 mmHg 74%
    14:00 +20°C° 0.2 mm 6 m/s 740 mmHg 74%
    15:00 +20°C° 0.2 mm 6 m/s 740 mmHg 75%
    16:00 +20°C° 0.2 mm 5 m/s 741 mmHg 76%
    17:00 +19°C° 0.2 mm 4 m/s 741 mmHg 77%
    18:00 +19°C° 0.2 mm 4 m/s 742 mmHg 78%
    19:00 +17°C° 0 mm 3 m/s 742 mmHg 83%
    20:00 +16°C° 0 mm 2 m/s 743 mmHg 87%
    21:00 +14°C° 0 mm 2 m/s 744 mmHg 92%
    22:00 +14°C° 0 mm 2 m/s 744 mmHg 92%
    23:00 +13°C° 0 mm 1 m/s 744 mmHg 93%

    21 Julho, Domingo

    Tempo Temperatura Precipitação Vento Pressão Humidade
    00:00 +13°C° 0 mm 1 m/s 745 mmHg 94%
    01:00 +13°C° 0 mm 1 m/s 745 mmHg 93%
    02:00 +13°C° 0 mm 1 m/s 745 mmHg 93%
    03:00 +12°C° 0 mm 1 m/s 745 mmHg 93%
    04:00 +13°C° 0 mm 1 m/s 745 mmHg 92%
    05:00 +14°C° 0 mm 1 m/s 746 mmHg 92%
    06:00 +14°C° 0 mm 1 m/s 746 mmHg 91%
    07:00 +15°C° 0 mm 2 m/s 747 mmHg 87%
    08:00 +17°C° 0 mm 3 m/s 747 mmHg 84%
    09:00 +18°C° 0 mm 4 m/s 748 mmHg 80%
    10:00 +19°C° 0 mm 4 m/s 748 mmHg 77%
    11:00 +19°C° 0 mm 4 m/s 748 mmHg 73%
    12:00 +20°C° 0 mm 5 m/s 748 mmHg 70%
    13:00 +20°C° 0 mm 5 m/s 748 mmHg 69%
    14:00 +20°C° 0 mm 5 m/s 748 mmHg 69%
    15:00 +20°C° 0 mm 5 m/s 748 mmHg 68%
    16:00 +20°C° 0 mm 4 m/s 748 mmHg 70%
    17:00 +19°C° 0 mm 4 m/s 748 mmHg 72%
    18:00 +19°C° 0 mm 3 m/s 748 mmHg 74%
    19:00 +17°C° 0 mm 3 m/s 749 mmHg 79%
    20:00 +16°C° 0 mm 2 m/s 749 mmHg 83%
    21:00 +14°C° 0 mm 1 m/s 749 mmHg 88%
    22:00 +14°C° 0 mm 1 m/s 749 mmHg 90%
    23:00 +14°C° 0 mm 1 m/s 749 mmHg 91%

    22 Julho, Segunda-feira

    Tempo Temperatura Precipitação Vento Pressão Humidade
    00:00 +13°C° 0 mm 1 m/s 749 mmHg 93%
    01:00 +13°C° 0 mm 1 m/s 748 mmHg 93%
    02:00 +13°C° 0 mm 1 m/s 748 mmHg 94%
    03:00 +13°C° 0 mm 2 m/s 748 mmHg 95%
    04:00 +13°C° 0 mm 2 m/s 748 mmHg 94%
    05:00 +14°C° 0 mm 2 m/s 748 mmHg 93%
    06:00 +14°C° 0 mm 2 m/s 748 mmHg 92%
    07:00 +16°C° 0 mm 2 m/s 748 mmHg 86%
    08:00 +17°C° 0 mm 2 m/s 748 mmHg 80%
    09:00 +19°C° 0 mm 3 m/s 749 mmHg 75%
    10:00 +20°C° 0 mm 3 m/s 749 mmHg 71%
    11:00 +21°C° 0 mm 3 m/s 749 mmHg 68%
    12:00 +22°C° 0 mm 4 m/s 749 mmHg 64%
    13:00 +22°C° 0 mm 4 m/s 749 mmHg 64%
    14:00 +23°C° 0 mm 4 m/s 749 mmHg 64%
    15:00 +23°C° 0 mm 4 m/s 748 mmHg 64%
    16:00 +24°C° 0 mm 3 m/s 748 mmHg 67%
    17:00 +22°C° 0 mm 3 m/s 748 mmHg 70%
    18:00 +22°C° 0 mm 3 m/s 748 mmHg 73%
    19:00 +20°C° 0 mm 2 m/s 748 mmHg 78%
    20:00 +19°C° 0 mm 1 m/s 747 mmHg 82%
    21:00 +15°C° 0 mm 0 m/s 747 mmHg 87%
    22:00 +15°C° 0 mm 0 m/s 747 mmHg 87%
    23:00 +14°C° 0 mm 0 m/s 747 mmHg 87%

    23 Julho, Terça-feira

    Tempo Temperatura Precipitação Vento Pressão Humidade
    00:00 +14°C° 0 mm 0 m/s 747 mmHg 87%
    01:00 +15°C° 0 mm 1 m/s 746 mmHg 87%
    02:00 +15°C° 0 mm 1 m/s 746 mmHg 88%
    03:00 +15°C° 0 mm 1 m/s 745 mmHg 89%
    04:00 +16°C° 0 mm 1 m/s 745 mmHg 88%
    05:00 +17°C° 0 mm 2 m/s 745 mmHg 88%
    06:00 +17°C° 0 mm 2 m/s 744 mmHg 88%
    07:00 +19°C° 0 mm 2 m/s 744 mmHg 83%
    08:00 +21°C° 0 mm 3 m/s 744 mmHg 79%
    09:00 +24°C° 0 mm 3 m/s 744 mmHg 74%
    10:00 +25°C° 0.1 mm 3 m/s 743 mmHg 73%
    11:00 +27°C° 0.1 mm 4 m/s 743 mmHg 71%
    12:00 +28°C° 0.1 mm 4 m/s 743 mmHg 69%
    13:00 +29°C° 0 mm 4 m/s 743 mmHg 68%
    14:00 +29°C° 0 mm 4 m/s 742 mmHg 67%
    15:00 +30°C° 0 mm 4 m/s 742 mmHg 66%
    16:00 +29°C° 0.3 mm 4 m/s 742 mmHg 71%
    17:00 +28°C° 0.3 mm 4 m/s 741 mmHg 75%
    18:00 +27°C° 0.3 mm 3 m/s 741 mmHg 79%
    19:00 +26°C° 0.5 mm 3 m/s 741 mmHg 84%
    20:00 +24°C° 0.5 mm 2 m/s 741 mmHg 88%
    21:00 +23°C° 0.5 mm 2 m/s 741 mmHg 93%
    22:00 +22°C° 0 mm 1 m/s 741 mmHg 93%
    23:00 +21°C° 0 mm 1 m/s 741 mmHg 94%
    Mostrar mais